Погода в Даттахе

Россия / Чеченская Республика     43°00′42″N   46°23′39″E
темп.,
°C
ветер,
м/с
пор.,
м/с
влажн.,
%
обл.,
%
осадки,
мм/ч
давл.,
гПа
погр.,
м
14 апреля, ср
ср1400:00+6ююв22784 0.0 101722
03:00+6ююв117911 0.0 101514
06:00+5зюз118447 0.0 101635
09:00+9сз337597 0.0 1016775
12:00+7сз3589100 0.3 1016819
15:00+5зюз2593100 4.6 1018340
18:00+6зюз2579100 0.8 1017273
21:00+4юз358094 0.8 101984
15 апреля, чт
чт1500:00+4юз33888 0.0 101867
03:00+3юз33901 0.0 101952
06:00+4ююз33783 0.0 101845
09:00+10зсз34620 0.0 1017790
12:00+13сз44484 0.0 10151424
15:00+13ссз445097 0.1 10161517
18:00+10с1161100 0.0 1017199
21:00+8ююз2267100 0.0 101818
16 апреля, пт
пт1600:00+8ююз2268100 0.0 101717
03:00+7ю22715 0.0 101813
06:00+7ююв227182 0.0 101816
09:00+13ссв225296 0.0 10181007
12:00+14ссв435298 0.3 10171245
15:00+14св335476 0.9 10161252
18:00+11вюв126816 0.6 101779
21:00+9ю227361 1.0 101721
17 апреля, сб
сб1700:00+9ю326996 0.0 101723
03:00+8ююз227071 0.0 101819
06:00+9ююз2268100 0.0 101916
09:00+11сз3264100 0.0 1020789
12:00+10сз3378100 0.1 1020798
15:00+9сз1283100 0.2 1021501
18:00+8зюз1187100 0.1 1022168
21:00+8ссз0189100 0.3 102287
18 апреля, вс
вс1800:00+8ссз1192100 0.0 102171
03:00+7св0196100 0.0 102133
06:00+7св1194100 0.0 102063
09:00+11ссв227492 0.1 1018531
12:00+13ссв3272100 0.0 1017772
15:00+12ссв227688 0.1 1017647
18:00+10с118899 0.4 1019232
21:00+9юв019274 0.9 101982